Back to catalog

USA 385

AliveMilitaryVLEO
NORAD 60168·PAYLOAD·🇺🇸 United States

Launched Jun 29, 2024 from Vandenberg Space Force Base

Loading…

Next Passes (next 24 hours)

TLE

StaleSource: Mike McCants

Epoch: Aug 25, 2026, 00:47 UTC

1 60168U 24121L   26237.03290499 0.00000000  00000-0  00000-0 0    00
2 60168  70.0214 214.0863 0004000 109.5823 250.4176 14.96713226    09

Track USA 385 in real time with AllMySat

Download on the App Store